カタログに戻る

COSMOS 1275 DEB

運用中PO
NORAD 12704·DEBRIS·🇷🇺 Russia

打ち上げ Jun 4, 1981 から Plesetsk Cosmodrome

Loading…

次のパス (今後24時間)

TLE

最新Source: Space-Track

元期: Sep 14, 2026, 10:27 UTC

1 12704U 81053AY  26257.43583359  .00000300  00000-0  30967-3 0  9994
2 12704  82.9860  64.4803 0084542  95.3336 294.5365 13.71226277249452

AllMySatでCOSMOS 1275 DEBをリアルタイム追跡

Download on the App Store